Hourly Data Report for May 30, 2012

All times are specified in Local Standard Time (LST). Add 1 hour to adjust for Daylight Saving Time where and when it is observed.

ST. JOHN'S INTL A
NEWFOUNDLAND

47°37'07.000" N
52°45'09.000" W
140.50 m
8403505
71801
YYT

Download Data

Hourly Data (May 2012)
Hourly Data Report for May 30, 2012
Temp Definition
°C
Dew Point Temp Definition
°C
Rel Hum Definition
%
Wind Dir Definition
10's deg

Wind Spd Definition
km/h
Visibility Definition
km
Stn Press Definition
kPa
Hmdx Definition


Wind Chill Definition


Weather Definition


TIME
00:30 2.8 2.5 98 34 30 4.0 99.20     Drizzle,Fog
01:30 2.7 2.6 99 33 30 2.0 99.21     Drizzle,Fog
02:30 2.7 2.6 99 33 34 2.0 99.24     Drizzle,Fog
03:30 2.7 2.6 99 34 32 2.0 99.30     Drizzle,Fog
04:30 2.8 2.7 99 33 35 3.2 99.29     Drizzle,Fog
05:30 2.7 2.6 99 33 32 3.2 99.33     Drizzle,Fog
06:30 2.6 2.5 99 33 36 6.4 99.33     Drizzle,Fog
07:30 2.6 2.5 99 33 33 2.4 99.36     Drizzle,Fog
08:30 3.1 3.0 99 33 35 4.8 99.34     Drizzle,Fog
09:30 3.7 3.6 99 33 33 4.8 99.32     Fog
10:30 3.9 3.5 97 33 32 10.0 99.32     LegendNANA
11:30 4.9 4.3 96 33 32 10.0 99.30     Cloudy
12:30 4.9 3.7 92 33 31 10.0 99.32     LegendNANA
13:30 5.4 3.6 88 34 32 10.0 99.31     LegendNANA
14:30 5.7 4.0 89 33 31 10.0 99.32     Cloudy
15:30 4.9 3.4 90 34 28 10.0 99.35     LegendNANA
16:30 4.6 3.4 92 35 22 10.0 99.33     Drizzle
17:30 4.4 3.2 92 33 23 10.0 99.33     Cloudy
18:30 4.0 2.8 92 34 21 10.0 99.37     LegendNANA
19:30 3.8 2.6 92 35 22 10.0 99.35     LegendNANA
20:30 3.5 2.5 93 34 18 10.0 99.39     Cloudy
21:30 3.3 2.0 91 35 18 10.0 99.43     LegendNANA
22:30 3.2 2.2 93 33 16 10.0 99.41     LegendNANA
23:30 3.0 2.1 94 32 15 10.0 99.40     Cloudy

Notes on Data Quality.

Legend

  • E = Estimated
  • M = Missing
  • NA = Not Available
Date modified: